Regional Weather Roundup
Issued by NWS

Home | Current Version | Previous Version | Text Only | Print | Product List | Glossary On
Versions: 1 2 3 4 5 6 7 8 9 10 11 12 13 14 15 16 17 18 19 20 21 22 23 24 25 26 27 28 29 30 31 32 33 34 35 36 37 38 39 40 41 42 43 44 45 46 47 48 49 50
000
ASUS43 KLSX 270310
RWRMO

WEATHER SUMMARY FOR MISSOURI
NATIONAL WEATHER SERVICE SPRINGFIELD MO
1000 PM CDT THU MAY 26 2016

NOTE: "FAIR" INDICATES FEW OR NO CLOUDS BELOW 12,000 FEET WITH NO
       SIGNIFICANT WEATHER AND/OR OBSTRUCTIONS TO VISIBILITY.
       CURRENT SKY AND/OR WEATHER CONDITIONS ARE NOT AVAILABLE FOR
       CHILLICOTHE AND FARMINGTON.

MOZ001>031-035>038-043-044-053-054-270400-
...NORTHERN AND WESTERN MISSOURI...

CITY           SKY/WX    TMP DP  RH WIND       PRES   REMARKS
KANSAS CTY INT RAIN      62  60  93 N9        29.92R FOG
KANSAS C DTWN  RAIN      63  61  93 VRB3      29.92R FOG
LEE`S SUMMIT   LGT RAIN  63  61  93 NE12      29.91S
ST JOSEPH      RAIN      63  60  90 NE16      29.93R FOG
CHILLICOTHE      N/A     64  63  96 NE3       29.93R
KIRKSVILLE     LGT RAIN  64  62  93 NW9       29.91F

$$
MOZ066>068-077>081-088>096-101>105-270400-
...SOUTHWEST MISSOURI...

CITY           SKY/WX    TMP DP  RH WIND       PRES   REMARKS
SPRINGFIELD    CLOUDY    69  59  70 SE10      29.84R
JOPLIN         CLEAR     67  60  78 SE6       29.82R

$$
MOZ032>034-039>042-045>050-055>058-069>072-270400-
...CENTRAL MISSOURI...

CITY           SKY/WX    TMP DP  RH WIND       PRES   REMARKS
COLUMBIA       TSTM      64  63  96 NE20G30   29.91R VSB 3/4
JEFFERSON CITY TSTM      66  62  87 N21G29    29.88R FOG
ROLLA          TSTM      70  69  97 S14G24    29.90R FOG
SEDALIA        LGT RAIN  65  63  93 MISG      29.91R
WHITEMAN AFB   LGT RAIN  62  62 100 NE12      29.87F
WARRENSBURG    CLOUDY    61  61 100 NE10      29.87S

$$
MOZ051-052-059>065-270400-
...EAST CENTRAL MISSOURI...

CITY           SKY/WX    TMP DP  RH WIND       PRES   REMARKS
ST LOUIS INTL  CLOUDY    76  66  71 S9        29.92R
SPIRIT OF STL  CLOUDY    75  69  81 VRB5      29.90R
ST CHARLES     CLOUDY    74  69  85 SE6       29.90R

$$
MOZ072>076-082>087-097>100-106>115-270400-
...SOUTH CENTRAL AND SOUTHEAST MISSOURI...

CITY           SKY/WX    TMP DP  RH WIND       PRES   REMARKS
CAPE GIRARDEAU LGT RAIN  68  64  87 S13       29.98F
FARMINGTON     CLOUDY    68  64  87 S13G22    29.95F
POPLAR BLUFF   LGT RAIN  67  65  93 SE14      29.94F
WEST PLAINS    CLOUDY    71  66  84 SE12      29.91R

$$



USA.gov is the U.S. government's official web portal to all federal, state and local government web resources and services.